Вернуться в каталог

SL-16 DEB

LostLEO
NORAD 39880·DEBRIS·🇷🇺 Russia

Запущен Mar 26, 1993 с Baikonur Cosmodrome

Loading…

Ближайшие Пролёты (ближайшие 24 часа)

TLE

УстаревшееSource: Space-Track

Эпоха: Sep 6, 2022, 17:49 UTC

1 39880U 93016BE  22249.74297341  .00004793  00000-0  18140-2 0  9992
2 39880  70.9653 278.4846 0114980  75.8983 285.4893 14.28062491933553

Отслеживайте SL-16 DEB в реальном времени с AllMySat

Download on the App Store